Orange City, IA

8:14 AM CST on February 25, 2017 (GMT -0600)
Orange City Municipal

Weather History for KORC - June, 2013

Change the Weather History Date:

Wednesday, June 12, 2013

  Actual Average Record
Temperature  
Mean Temperature 68 °F -  
Max Temperature 77 °F 76 °F 100 °F (1952)
Min Temperature 60 °F 57 °F 48 °F (2006)
Cooling Degree Days 4    
Growing Degree Days 18 (Base 50)    
Moisture  
Dew Point 61 °F    
Average Humidity 77    
Maximum Humidity 88    
Minimum Humidity 64    
Precipitation  
Precipitation 0.20 in - - ()
Sea Level Pressure  
Sea Level Pressure 29.84 in    
Wind  
Wind Speed 10 mph (NNE)    
Max Wind Speed 23 mph    
Max Gust Speed 29 mph    
Visibility 9 miles    
Events Rain    
Averages and records for this station are not official NWS values.
T = Trace of Precipitation, MM = Missing Value Source: NWS Daily Summary

Daily Weather History Graph

Daily Weather History Graph

Search for Another Location

Airport or City:

Trip Planner

Search our weather history database for the weather conditions in past years. The results will help you decide how hot, cold, wet, or windy it might be!

Date:

Astronomy

Jun. 12, 2013 Rise Set
Actual Time 5:44 AM CDT 9:03 PM CDT
Civil Twilight 5:09 AM CDT 9:39 PM CDT
Nautical Twilight 4:23 AM CDT 10:24 PM CDT
Astronomical Twilight 3:27 AM CDT 11:21 PM CDT
Moon 9:29 AM CDT (6/12) 11:35 PM CDT (6/12)
Length of Visible Light 16h 29m
Length of Day
15h 19m
Waxing Crescent, 14% of the Moon is Illuminated
Jun 12
Waxing Crescent
Jun 16
First Quarter
Jun 23
Full
Jun 29
Last Quarter
Jul 8
New

Hourly Weather History & Observations

Time (CDT) Temp. Dew Point Humidity Pressure Visibility Wind Dir Wind Speed Gust Speed Precip Events Conditions
12:15 AM 77.0 °F 66.2 °F 69% 29.81 in 10.0 mi ENE 11.5 mph 17.3 mph N/A   Mostly Cloudy
12:55 AM 75.2 °F 66.2 °F 73% 29.77 in 10.0 mi ENE 10.4 mph 19.6 mph N/A   Clear
1:15 AM 73.4 °F 66.2 °F 78% 29.77 in 10.0 mi East 10.4 mph 18.4 mph N/A   Clear
1:35 AM 71.6 °F 66.2 °F 83% 29.79 in 4.0 mi NE 8.1 mph - 0.11 in Rain Rain
1:55 AM 71.6 °F 66.2 °F 83% 29.78 in 10.0 mi ENE 10.4 mph - 0.11 in Rain Light Rain
2:15 AM 71.6 °F 66.2 °F 83% 29.82 in 2.5 mi ENE 5.8 mph - 0.03 in Rain Rain
2:35 AM 71.6 °F 66.2 °F 83% 29.82 in 10.0 mi East 9.2 mph - 0.06 in Rain Light Rain
2:55 AM 71.6 °F 66.2 °F 83% 29.77 in 10.0 mi East 9.2 mph - 0.08 in Rain Rain
3:35 AM 69.8 °F 66.2 °F 88% 29.73 in 7.0 mi East 9.2 mph - 0.01 in   Clear
3:55 AM 69.8 °F 66.2 °F 88% 29.74 in 7.0 mi SE 10.4 mph - 0.01 in   Clear
4:15 AM 71.6 °F 66.2 °F 83% 29.70 in 10.0 mi ESE 13.8 mph 18.4 mph N/A   Clear
4:35 AM 71.6 °F 66.2 °F 83% 29.59 in 10.0 mi ESE 23.0 mph 28.8 mph N/A Rain Light Rain
4:55 AM 71.6 °F 66.2 °F 83% 29.62 in 10.0 mi SE 6.9 mph 16.1 mph N/A   Clear
5:15 AM 73.4 °F 66.2 °F 78% 29.67 in 10.0 mi SSE 12.7 mph 19.6 mph N/A   Clear
5:35 AM 73.4 °F 66.2 °F 78% 29.69 in 10.0 mi SSE 8.1 mph - N/A   Clear
5:55 AM 71.6 °F 66.2 °F 83% 29.77 in 10.0 mi NNW 9.2 mph - N/A   Scattered Clouds
6:15 AM 71.6 °F 66.2 °F 83% 29.79 in 10.0 mi NW 6.9 mph - N/A   Mostly Cloudy
6:57 AM 71.6 °F 66.2 °F 83% 29.78 in 7.0 mi NNE 6.9 mph - N/A   Overcast
7:15 AM 69.8 °F 66.2 °F 88% 29.78 in 7.0 mi NE 5.8 mph - N/A   Mostly Cloudy
7:35 AM 71.6 °F 66.2 °F 83% 29.78 in 7.0 mi NE 6.9 mph - N/A   Mostly Cloudy
7:55 AM 71.6 °F 66.2 °F 83% 29.77 in 7.0 mi NE 5.8 mph - N/A   Overcast
8:15 AM 73.4 °F 66.2 °F 78% 29.77 in 7.0 mi ENE 5.8 mph - N/A   Scattered Clouds
8:35 AM 73.4 °F 66.2 °F 78% 29.75 in 10.0 mi East 8.1 mph - N/A   Clear
8:55 AM 75.2 °F 66.2 °F 73% 29.75 in 10.0 mi NE 5.8 mph - N/A   Clear
9:15 AM 75.2 °F 68.0 °F 78% 29.75 in 10.0 mi East 6.9 mph - N/A   Clear
9:35 AM 75.2 °F 66.2 °F 73% 29.74 in 10.0 mi NNE 15.0 mph 21.9 mph N/A   Mostly Cloudy
9:55 AM 69.8 °F 62.6 °F 78% 29.76 in 7.0 mi NE 10.4 mph 20.7 mph N/A   Overcast
10:15 AM 69.8 °F 62.6 °F 78% 29.78 in 10.0 mi NE 8.1 mph 16.1 mph N/A   Overcast
10:35 AM 69.8 °F 62.6 °F 78% 29.78 in 10.0 mi NE 8.1 mph - N/A   Overcast
10:55 AM 71.6 °F 62.6 °F 73% 29.79 in 10.0 mi NE 10.4 mph - N/A   Overcast
11:15 AM 69.8 °F 62.6 °F 78% 29.81 in 10.0 mi NNE 9.2 mph - N/A   Overcast
11:35 AM 69.8 °F 62.6 °F 78% 29.82 in 10.0 mi NNE 9.2 mph - N/A   Overcast
11:55 AM 69.8 °F 62.6 °F 78% 29.83 in 10.0 mi NE 8.1 mph - N/A   Overcast
12:15 PM 69.8 °F 62.6 °F 78% 29.83 in 10.0 mi NNE 9.2 mph - N/A   Overcast
12:35 PM 69.8 °F 62.6 °F 78% 29.84 in 10.0 mi North 6.9 mph - N/A   Overcast
12:55 PM 69.8 °F 62.6 °F 78% 29.84 in 7.0 mi NNW 5.8 mph - N/A   Overcast
1:15 PM 71.6 °F 64.4 °F 78% 29.83 in 10.0 mi North 3.5 mph - N/A   Mostly Cloudy
1:35 PM 71.6 °F 64.4 °F 78% 29.84 in 10.0 mi NW 11.5 mph - N/A   Mostly Cloudy
1:55 PM 71.6 °F 62.6 °F 73% 29.85 in 10.0 mi NW 15.0 mph 19.6 mph N/A   Overcast
2:15 PM 71.6 °F 62.6 °F 73% 29.85 in 10.0 mi NW 13.8 mph - N/A   Overcast
2:35 PM 69.8 °F 60.8 °F 73% 29.86 in 10.0 mi NW 17.3 mph 23.0 mph N/A   Overcast
2:55 PM 69.8 °F 60.8 °F 73% 29.86 in 10.0 mi NNW 13.8 mph 23.0 mph N/A   Overcast
3:15 PM 71.6 °F 60.8 °F 69% 29.86 in 10.0 mi NNW 12.7 mph 21.9 mph N/A   Overcast
3:35 PM 73.4 °F 60.8 °F 65% 29.86 in 10.0 mi NW 17.3 mph 23.0 mph N/A   Overcast
3:55 PM 71.6 °F 62.6 °F 73% 29.87 in 10.0 mi North 16.1 mph 23.0 mph N/A   Mostly Cloudy
4:55 PM 66.2 °F 55.4 °F 68% 29.90 in 10.0 mi North 13.8 mph 24.2 mph N/A   Overcast
5:15 PM 66.2 °F 55.4 °F 68% 29.91 in 10.0 mi North 17.3 mph 26.5 mph N/A   Overcast
5:35 PM 64.4 °F 55.4 °F 73% 29.92 in 10.0 mi North 13.8 mph 27.6 mph N/A   Overcast
5:55 PM 64.4 °F 53.6 °F 68% 29.93 in 10.0 mi North 17.3 mph 24.2 mph N/A   Overcast
6:15 PM 62.6 °F 53.6 °F 72% 29.93 in 10.0 mi North 18.4 mph 24.2 mph N/A   Overcast
6:35 PM 60.8 °F 51.8 °F 72% 29.94 in 10.0 mi North 16.1 mph 25.3 mph N/A   Overcast
6:55 PM 60.8 °F 51.8 °F 72% 29.95 in 10.0 mi North 12.7 mph 21.9 mph N/A   Overcast
7:15 PM 62.6 °F 53.6 °F 72% 29.95 in 10.0 mi North 13.8 mph 25.3 mph N/A   Mostly Cloudy
7:35 PM 64.4 °F 51.8 °F 64% 29.96 in 10.0 mi North 13.8 mph 23.0 mph N/A   Scattered Clouds
7:55 PM 64.4 °F 53.6 °F 68% 29.97 in 10.0 mi North 12.7 mph 18.4 mph N/A   Clear
8:15 PM 62.6 °F 53.6 °F 72% 29.99 in 10.0 mi NNW 9.2 mph - N/A   Mostly Cloudy
9:15 PM 62.6 °F 53.6 °F 72% 30.00 in 10.0 mi NNW 8.1 mph - N/A   Clear
9:35 PM 62.6 °F 53.6 °F 72% 30.01 in 10.0 mi NNW 9.2 mph - N/A   Clear
9:55 PM 62.6 °F 55.4 °F 77% 30.02 in 10.0 mi NW 8.1 mph - N/A   Clear
10:15 PM 60.8 °F 55.4 °F 82% 30.03 in 10.0 mi NW 8.1 mph - N/A   Clear
10:35 PM 60.8 °F 55.4 °F 82% 30.04 in 10.0 mi NW 8.1 mph - N/A   Clear
10:55 PM 60.8 °F 55.4 °F 82% 30.04 in 10.0 mi NNW 6.9 mph - N/A   Clear
11:15 PM 60.8 °F 55.4 °F 82% 30.04 in 10.0 mi NW 5.8 mph - N/A   Clear
11:35 PM 60.8 °F 51.8 °F 72% 30.04 in 10.0 mi North 10.4 mph - N/A   Clear
11:55 PM 62.6 °F 51.8 °F 68% 30.04 in 10.0 mi North 10.4 mph 18.4 mph N/A   Clear